Zurück zum Katalog

IRIDIUM 33 DEB

AktivPO
NORAD 46971·DEBRIS·🇺🇸 United States

Gestartet Sep 14, 1997 von Baikonur Cosmodrome

Loading…

Nächste Überflüge (nächste 24 Stunden)

TLE

AlterndSource: Space-Track

Epoche: Sep 8, 2026, 03:01 UTC

1 46971U 97051ACD 26251.12637186  .00058748  00000-0  29133-2 0  9991
2 46971  86.3112 203.9900 0010170  69.6972 302.2384 15.17437417682896

Verfolge IRIDIUM 33 DEB in Echtzeit mit AllMySat

Download on the App Store